Showing default

LEMUR-2 PEGGY-2004, 68479

Orbit data source: Space-Track

LEMUR-2 PEGGY-2004, 68479 is a Luxembourger payload satellite in SSO that was launched on Mon, 30 Mar 2026 UTC via an FALCON 9 launch vehicle from the Air Force Western Test Range (AFWTR). Payload-class satellites include a variety of spacecraft equipped with specific instruments for various scientific and technological missions. These include communications satellites like Starlink; space stations such as the ISS; scientific satellites like the Hubble; Earth observation satellites from companies like Planet Labs, Umbra, and HawkEye 360; GPS; miniature CubeSats for education and research; and military/defense satellites.

Loading next visibility...
Identifier
68479, 2026-067BR
Orbit
SSO
Country
Flag of LULU / LUXE
Related business
None
Manufacturer
Unknown
Mission
Operational spacecraft
Bus & Motor
Unknown
Mass
Unknown
Launch date (UTC)
2026-03-30 (1 month ago)
Launch vehicle
FALCON 9
Launch site
Air Force Western Test Range (AFWTR)
Object type
Payload
Rocket body
Debris
Shape & HBR
Unknown shape, 1.1 m
Radar Cross Section
RCS unknown

Expand to show TLE details & history
Last TLE update: 12 hours ago

TLE from 12 hours ago
0 LEMUR-2 PEGGY-2004
1 68479U 26067BR  26127.12140790  .00003676  00000-0  36558-3 0  9999
2 68479  97.7528  86.0210 0003033  68.0213 292.1328 14.92273246  5608
Epoch: 2026-05-07T02:54Z
TLE epoch observation values (Epoch: 2026-05-07T02:54:49.642Z)
Latitude
-0.00004°
Longitude
177.34207°
Altitude
593.096 km
Speed
7.564 km/s
True Right ascension
05h 44m 05s
True Declination
0° 00' 00"
Sunlit
Object was in daylight at epoch
Visualization orbit readout
Latitude
Unknown
Longitude
Unknown
Altitude
Unknown
Speed
Unknown
Apparent Right ascension
Unknown
Apparent Declination
Unknown
Sunlit
N/A
Visualization observer readout
Local Sidereal Time
23:12:26
Azimuth
Unknown
Elevation
Unknown
Doppler factor
Unknown
Orbital elements
Apogee altitude
589.98 km
Perigee altitude
585.754 km
Semi-major axis
6,966.004 km
Eccentricity
0.0003
Inclination
97.7528°
RAAN
86.021°
Arg. of periapsis
68.0213°
True anomaly
292.1006°
Mean anomaly
292.1328°
Eccentric anomaly
292.1167°
Mean motion
3.73308 °/min
Orbital period
96.44 mins
BSTAR
0.00036558
Loading maneuver chart data...
Computing Atmospheric mass density...
Loading historical data...
Loading historical data...
Loading historical data...
Loading historical data...
Loading historical data...
Loading historical data...
Loading historical data...

Documentation

Showing up to 5 results
|